Terminal Aerodrome Forecast
Issued by NWS

Home | Current Version | Previous Version | Text Only | Print | Product List | Glossary On
Versions: 1 2 3 4 5 6 7 8 9 10 11 12 13 14 15 16 17 18 19 20 21 22 23 24 25 26 27 28
000
FTAK31 PANC 230533
TAFAEN
TAF
PAEN 230533Z 2306/2406 21008KT P6SM SCT050 OVC090
     FM231400 VRB05KT P6SM -SHRA SCT025 OVC040
     FM240000 24006KT P6SM -RA BKN025 OVC035=

USA.gov is the U.S. government's official web portal to all federal, state and local government web resources and services.